[[{"header":{"parameterUnit":"m.s-1","parameterCategory":1,"la1":30.2991,"la2":30.254,"lo1":-89.0895,"lo2":-89.0444,"dy":0.0017,"dx":0.0017,"nx":28,"ny":28,"refTime":"2025-07-31T21:00:00:Z","depth":0,"parameterNumber":2,"parameterNumberName":"U-component_of_WINDS"},"data":[0,0,0,0,0,0,0,0,0,0,0,0,0,0,0,0,0,0,0,0,0,0,0,0,0,0,0,0,0,0,0,0,0,0,0,0,0,0,0,0,0,0,0,0,0,0,0,0,0,0,0,0,0,0,0,0,0,0,2.0419,2.0419,0,2.0477,2.0478,2.0478,2.0425,2.0423,2.0421,2.0419,2.048,2.0484,2.0487,0,0,0,0,0,0,0,0,0,0,0,0,0,2.0261,2.0265,2.0419,2.042,2.042,2.0477,2.0478,2.0479,2.0426,2.0423,2.0421,2.0418,2.0479,2.0483,2.0488,0,0,0,0,0,0,0,0,0,0,0,0,0,2.0326,2.0266,2.0419,2.0401,2.04,2.0477,2.0478,2.0479,2.0426,2.0423,2.042,2.0417,2.0478,2.0483,2.0488,2.0587,0,0,2.0505,2.0507,0,0,0,0,0,0,0,0,2.0322,2.0332,2.0403,2.0402,2.0401,2.0441,2.0445,2.0515,2.0427,2.0416,2.0419,2.0415,2.047,2.0476,2.0494,2.0589,2.0592,2.0505,2.0509,2.0511,2.0513,0,0,0,0,0,0,0,2.0318,2.0329,2.0442,2.0404,2.0403,2.039,2.0395,2.0458,2.046,2.0417,2.0413,2.0421,2.0469,2.0489,2.0495,2.0593,2.0505,2.051,2.0513,2.0516,2.077,2.0773,0,0,0,0,0,0,2.0315,2.0326,2.044,2.0444,2.0353,2.0395,2.0401,2.0431,2.046,2.0461,2.0423,2.0418,2.0481,2.0488,2.0497,2.0612,2.0511,2.0516,2.0519,2.0767,2.0771,2.0775,0,0,0,0,0,0,2.0312,2.0326,2.0438,2.0384,2.0397,2.0401,2.0435,2.0434,2.0454,2.0465,2.0465,2.0443,2.0479,2.0489,2.0564,2.0614,2.0519,2.0523,2.0763,2.0768,2.0773,2.0845,0,0,0,0,0,0,2.0308,2.0325,2.0363,2.0385,2.04,2.0504,2.0438,2.0438,2.0463,2.0457,2.0483,2.0484,2.0477,2.0556,2.0569,2.062,2.0528,2.0758,2.0765,2.0771,2.0839,2.0853,2.0864,0,0,0,0,0,2.0302,2.0382,2.0365,2.0379,2.0447,2.0507,2.0516,2.0505,2.0468,2.0505,2.0512,2.0484,2.0606,2.0564,2.0579,2.0631,2.0755,2.0763,2.0771,2.0833,2.085,2.0864,0,0,0,0,0,0,2.0366,2.0384,2.0366,2.0455,2.048,2.0498,2.0545,2.0524,2.056,2.0553,2.0538,2.0545,2.0624,2.0635,2.0588,2.0727,2.0674,2.0686,2.0717,2.0733,2.0746,2.0741,2.0532,0,0,0,0,0,2.039,2.0438,2.0451,2.0528,2.0541,2.0541,2.0567,2.0557,2.0582,2.0593,2.0605,2.0631,2.0675,2.0705,2.0746,2.084,2.0844,2.0883,2.0896,2.0906,2.0916,2.0965,2.0982,2.08,2.08,2.08,0,0,2.0441,2.0457,2.0488,2.0541,2.0559,2.0609,2.0551,2.0606,2.0642,2.0601,2.0672,2.0682,2.071,2.0795,2.0832,2.0807,2.0967,2.0916,2.0925,2.0929,2.0975,2.0992,2.1008,2.0806,2.0805,2.0804,0,0,2.0559,2.0576,2.0641,2.066,2.0688,2.0687,2.0703,2.0724,2.0729,2.08,2.077,2.0813,2.089,2.091,2.0931,2.1055,2.103,2.1068,2.1136,2.1184,2.1198,2.1211,2.1254,2.127,2.1078,2.1078,2.1078,0,2.0619,2.0692,2.0678,2.0734,2.0758,2.0722,2.0788,2.0807,2.0848,2.0865,2.0835,2.0929,2.0946,2.1034,2.1064,2.1082,2.1099,2.1066,2.1197,2.121,2.1221,2.1262,2.1279,2.1083,2.1082,2.1082,2.1081,0,2.0764,2.0814,2.0864,2.0902,2.0932,2.0993,2.0987,2.1019,2.1005,2.1007,2.1079,2.1097,2.1141,2.1161,2.1149,2.1247,2.123,2.1199,2.1146,2.1243,2.1282,2.1297,2.1089,2.1088,2.1086,2.1085,0,0,2.0924,2.0953,2.0971,2.0988,2.1015,2.1054,2.1113,2.1154,2.1181,2.121,2.1258,2.1323,2.1294,2.1317,2.1307,2.1349,2.1444,2.1312,2.1313,2.1336,2.1553,2.1576,2.1594,2.1428,2.1431,2.1433,2.155,0,2.1042,2.1144,2.1132,2.1229,2.1275,2.1241,2.1292,2.1314,2.1318,2.1357,2.136,2.1406,2.1365,2.1378,2.1419,2.1424,2.1488,2.1416,2.1473,2.1475,2.1467,2.1614,2.1639,2.1749,2.1565,2.1568,2.1569,0,2.1194,2.1227,2.1328,2.1347,2.1366,2.1412,2.1448,2.1486,2.151,2.1509,2.1535,2.1516,2.1575,2.152,2.16,2.1551,2.1574,2.158,2.1584,2.1589,2.1528,2.1623,2.1783,2.18,2.1593,2.1591,2.1589,0,2.13,2.137,2.1439,2.1454,2.1478,2.151,2.1522,2.1542,2.1568,2.16,2.1616,2.1655,2.1676,2.1706,2.1699,2.166,2.178,2.1725,2.1781,2.1781,2.1808,2.1806,2.1974,2.1823,2.1823,2.1822,2.1822,0,2.1433,2.1496,2.1486,2.1529,2.1598,2.1584,2.1653,2.166,2.1678,2.1722,2.1695,2.1736,2.1723,2.1763,2.1758,2.1824,2.1834,2.1835,2.1833,2.1838,2.1837,2.1852,2.1844,2.1827,2.1826,2.1825,2.1824,0,2.1564,2.156,2.1633,2.1648,2.1654,2.1704,2.1717,2.1757,2.1757,2.1812,2.1824,2.1825,2.1871,2.1866,2.1918,2.1914,2.1996,2.1985,2.1988,2.1986,2.2041,2.2036,2.2224,2.2248,2.2082,2.2083,2.2085,0,2.1649,2.1696,2.1717,2.1743,2.1756,2.18,2.1825,2.1812,2.184,2.1869,2.1906,2.1949,2.1983,2.2057,2.2063,2.2102,2.2091,2.2154,2.2097,2.21,2.2092,2.2089,2.2093,2.2166,2.2168,2.2169,2.2171,0,2.18,2.1795,2.1832,2.1869,2.1899,2.1928,2.1953,2.1977,2.1966,2.1998,2.2044,2.207,2.2122,2.2165,2.2202,2.2213,2.2191,2.2188,2.2203,2.2209,2.2208,2.2208,2.2019,2.2184,2.2183,2.2182,2.2181,2.2181,2.191,2.195,2.197,2.2012,2.2029,2.2054,2.2091,2.2096,2.2134,2.2174,2.2164,2.2216,2.2237,2.2284,2.2299,2.2339,2.2316,2.2338,2.2344,2.2349,2.2355,2.2201,2.2346,2.2346,2.2345,2.2345,2.2345,0,2.2059,2.207,2.2108,2.2144,2.2177,2.2151,2.2178,2.2207,2.2253,2.2274,2.2308,2.236,2.2401,2.2409,2.2448,2.2479,2.2469,2.249,2.2487,2.249,2.2374,2.2357,2.2497,2.2497,2.2497,2.2497,2.2497,2.2496,2.214,2.2206,2.2204,2.2278,2.2288,2.2338,2.2355,2.2377,2.2394,2.2453,2.2487,2.2492,2.2507,2.2547,2.2584,2.2585,2.26,2.2625,2.2622,2.2514,2.2498,2.2484,2.2468,2.2628,2.2629,2.2734,2.2735,2.2736]},{"header":{"parameterUnit":"m.s-1","parameterCategory":1,"la1":30.2991,"la2":30.254,"lo1":-89.0895,"lo2":-89.0444,"dy":0.0017,"dx":0.0017,"nx":28,"ny":28,"refTime":"2025-07-31T21:00:00:Z","depth":0,"parameterNumber":3,"parameterNumberName":"V-component_of_WINDS"},"data":[0,0,0,0,0,0,0,0,0,0,0,0,0,0,0,0,0,0,0,0,0,0,0,0,0,0,0,0,0,0,0,0,0,0,0,0,0,0,0,0,0,0,0,0,0,0,0,0,0,0,0,0,0,0,0,0,0,0,3.0961,3.0963,0,3.1125,3.1127,3.1129,3.1155,3.1153,3.1152,3.115,3.1312,3.1317,3.1323,0,0,0,0,0,0,0,0,0,0,0,0,0,3.0662,3.0667,3.0961,3.0963,3.0965,3.1125,3.1127,3.113,3.1155,3.1153,3.1151,3.115,3.131,3.1317,3.1324,0,0,0,0,0,0,0,0,0,0,0,0,0,3.0805,3.0669,3.096,3.0997,3.1002,3.1125,3.1127,3.113,3.1155,3.1153,3.1151,3.1149,3.1308,3.1316,3.1325,3.142,0,0,3.135,3.1354,0,0,0,0,0,0,0,0,3.0797,3.0816,3.0989,3.0995,3.1,3.1117,3.1081,3.1227,3.1156,3.1097,3.115,3.1148,3.1249,3.1262,3.1297,3.1428,3.1435,3.1351,3.1356,3.136,3.1362,0,0,0,0,0,0,0,3.0787,3.0809,3.1026,3.0992,3.0999,3.1003,3.1021,3.1109,3.1182,3.1102,3.1104,3.1123,3.1251,3.1289,3.1301,3.1437,3.1351,3.1358,3.1364,3.1367,3.1654,3.1656,0,0,0,0,0,0,3.0771,3.0801,3.102,3.1031,3.0891,3.101,3.103,3.1082,3.1182,3.1195,3.1125,3.1124,3.1275,3.1291,3.1307,3.1426,3.136,3.1368,3.1373,3.1651,3.1654,3.1657,0,0,0,0,0,0,3.0765,3.0791,3.1014,3.0916,3.0945,3.1018,3.1075,3.1086,3.1124,3.12,3.1212,3.1151,3.1274,3.1295,3.1392,3.1432,3.1372,3.1379,3.1648,3.1652,3.1656,3.1664,0,0,0,0,0,0,3.0756,3.0788,3.0827,3.0917,3.095,3.1099,3.1078,3.1091,3.114,3.114,3.1227,3.1239,3.1274,3.1379,3.1401,3.1442,3.1386,3.1645,3.165,3.1655,3.166,3.1668,3.1674,0,0,0,0,0,3.0745,3.0821,3.0829,3.0855,3.1001,3.1101,3.1119,3.116,3.1143,3.1181,3.1229,3.1236,3.1424,3.1389,3.1413,3.1458,3.1643,3.1649,3.1654,3.1658,3.1666,3.1673,0,0,0,0,0,0,3.0732,3.0834,3.0843,3.0951,3.1017,3.1105,3.1155,3.1168,3.1239,3.1236,3.1281,3.13,3.1395,3.1436,3.1396,3.1556,3.1532,3.1542,3.1526,3.1535,3.1541,3.1529,3.1393,0,0,0,0,0,3.0742,3.0817,3.0901,3.0988,3.1021,3.1082,3.1127,3.1153,3.1222,3.125,3.1305,3.137,3.1444,3.1491,3.1563,3.1666,3.1685,3.1709,3.1715,3.172,3.1729,3.1786,3.1797,3.1676,3.1676,3.1676,0,0,3.0762,3.0827,3.0871,3.0987,3.1041,3.1116,3.1105,3.1185,3.124,3.1261,3.1357,3.14,3.1475,3.1576,3.1623,3.1613,3.1767,3.1727,3.1731,3.1737,3.1793,3.1804,3.1815,3.168,3.1679,3.1678,0,0,3.0838,3.0895,3.0974,3.1029,3.1112,3.1153,3.1171,3.1257,3.1287,3.1385,3.1402,3.1467,3.1593,3.1646,3.169,3.1785,3.1794,3.1807,3.1841,3.1897,3.1906,3.1915,3.1949,3.1961,3.1815,3.1816,3.1816,0,3.0853,3.0968,3.1012,3.1092,3.1141,3.1166,3.1245,3.1295,3.1397,3.1429,3.1417,3.1576,3.1628,3.1742,3.1765,3.1799,3.1821,3.1798,3.1902,3.1911,3.192,3.1952,3.1965,3.1817,3.1816,3.1816,3.1816,0,3.0982,3.1062,3.1115,3.1215,3.127,3.1349,3.1403,3.1453,3.1473,3.1514,3.1612,3.1676,3.1762,3.179,3.181,3.1906,3.1898,3.1893,3.187,3.1932,3.1963,3.1976,3.1818,3.1818,3.1817,3.1817,0,0,3.1054,3.1178,3.1197,3.1243,3.1336,3.1397,3.1476,3.1562,3.1604,3.1672,3.1739,3.1844,3.1841,3.189,3.1916,3.1964,3.2036,3.1954,3.1956,3.1967,3.2145,3.2149,3.2163,3.2042,3.2045,3.2047,3.2139,0,3.1142,3.1286,3.1328,3.1448,3.1522,3.1546,3.1614,3.1678,3.1718,3.1784,3.1827,3.1902,3.1891,3.1921,3.197,3.2017,3.2072,3.2011,3.2103,3.2106,3.2084,3.218,3.2184,3.2268,3.2152,3.2154,3.2155,0,3.1263,3.1337,3.1465,3.1549,3.1582,3.1643,3.1725,3.1788,3.186,3.1885,3.1941,3.1962,3.2043,3.2015,3.2127,3.2084,3.2124,3.2152,3.2156,3.2167,3.2135,3.2193,3.2296,3.2308,3.2175,3.2174,3.2172,0,3.1303,3.1434,3.1528,3.1566,3.1667,3.1709,3.1752,3.1822,3.1871,3.1941,3.1973,3.205,3.2093,3.2152,3.2193,3.2169,3.2301,3.2276,3.2323,3.2322,3.235,3.2348,3.2461,3.2375,3.2375,3.2375,3.2374,0,3.1397,3.1475,3.1548,3.1606,3.1693,3.1739,3.1823,3.1867,3.1929,3.1994,3.2018,3.2078,3.2129,3.2195,3.2228,3.2315,3.2334,3.2355,3.2363,3.2354,3.2351,3.2381,3.2376,3.2378,3.2377,3.2377,3.2376,0,3.1457,3.1509,3.1614,3.17,3.1724,3.1784,3.1858,3.1913,3.1954,3.2036,3.2058,3.2121,3.22,3.2248,3.2347,3.2369,3.2465,3.247,3.2442,3.2446,3.249,3.2485,3.2627,3.2648,3.2547,3.2548,3.2549,0,3.1514,3.1575,3.1668,3.1715,3.1759,3.1834,3.1884,3.1931,3.1982,3.2068,3.2113,3.2194,3.2262,3.2387,3.2441,3.2517,3.2524,3.2568,3.2535,3.2524,3.2525,3.2521,3.2527,3.2574,3.2574,3.2575,3.2576,0,3.1608,3.1631,3.1705,3.1787,3.1847,3.1913,3.1979,3.2015,3.2072,3.2127,3.221,3.2263,3.2366,3.2446,3.2526,3.2568,3.2581,3.2586,3.2601,3.2592,3.2573,3.2584,3.2458,3.2582,3.2582,3.2581,3.2581,3.2581,3.1669,3.1724,3.1799,3.1879,3.1934,3.1995,3.2052,3.2101,3.2171,3.226,3.2282,3.2369,3.2438,3.2548,3.2592,3.2659,3.2651,3.2673,3.2678,3.2683,3.2685,3.2562,3.2673,3.2673,3.2673,3.2673,3.2673,0,3.1765,3.1815,3.1888,3.1981,3.2043,3.2052,3.2125,3.2176,3.2253,3.2318,3.2384,3.2479,3.2556,3.2616,3.2695,3.2737,3.2745,3.2756,3.2754,3.2763,3.2686,3.2666,3.2749,3.2749,3.2749,3.2749,3.2749,3.2749,3.1823,3.1917,3.1949,3.2069,3.2118,3.2205,3.2246,3.2301,3.2353,3.2459,3.2524,3.2563,3.2625,3.2709,3.278,3.2795,3.2823,3.2834,3.285,3.2777,3.2769,3.2761,3.2742,3.2839,3.2839,3.2921,3.2922,3.2922]}]]